Location: Newark
(37.3394°N, 6.0261°W)
Time: 22:26:07
(UTC+00:00)

OTV 5 (USA 277) - Pass Details

Date: 28 October 2019
Orbit: 310 x 324 km, 54.5° (Epoch: 17 October)

Event Time Altitude Azimuth Distance (km) Brightness Sun altitude
Rises 18:32:56 0° 221° (SW) 2,042 ? -12.9°
Reaches altitude 10° 18:34:53 10° 219° (SW) 1,218 ? -13.3°
Maximum altitude 18:37:35 74° 133° (SE) 335 ? -13.8°
Enters shadow 18:38:40 32° 54° (NE) 582 ? -14.0°
